Regional Weather Roundup
Issued by NWS

Home | Current Version | Previous Version | Text Only | Print | Product List | Glossary On
Versions: 1 2 3 4 5 6 7 8 9 10 11 12 13 14 15 16 17 18 19 20 21 22 23 24 25 26 27
000
ASUS42 KTBW 020716
RWRFL
FLORIDA REGIONAL WEATHER ROUNDUP
NATIONAL WEATHER SERVICE TAMPA BAY RUSKIN FL
200 AM EST THU DEC 02 2021

NOTE: "FAIR" INDICATES FEW OR NO CLOUDS BELOW 12,000 FEET WITH NO
SIGNIFICANT WEATHER AND/OR OBSTRUCTIONS TO VISIBILITY.

FLZ001>010-012>015-112-114-115-020800-
PANHANDLE FLORIDA

CITY           SKY/WX    TMP DP  RH WIND       PRES   REMARKS
PENSACOLA      CLEAR     50  50 100 CALM      30.15S
PENSACOLA NAS  CLEAR     48  46  93 CALM      30.15S FOG
CRESTVIEW      CLEAR     43  41  93 CALM      30.18R
DUKE FIELD     FAIR      43  40  91 CALM      30.16R
VALPARAISO     CLEAR     47  45  93 CALM      30.14F
MARY ESTHER    CLEAR     45  42  90 CALM      30.15S
TRI COUNTY     FAIR      42  40  92 CALM      30.17S
PANAMA CITY    FAIR      45  44  97 CALM      30.15S
TYNDALL AFB    FOG       48  46  93 CALM      30.14F VSB 1
APALACHICOLA   FOG       50  48  93 CALM      30.14F VSB 1/2

STATION/POSITION SKY/WX   TEMP    WIND        PRES    WAVE   SWELL
                          AIR SEA DIR/SP/G            HT/PER HT/PER
                          (F)     (DEG/KT/KT) (MB)    (FT/S) (FT/S)
30.1N   87.6W              67 69  300/  6/  6   N/A     1/ 4
29.2N   88.2W              70 73  220/  2/  4 1021.9
28.8N   86.0W              69 74  300/  6/  8 1021.7F   1/ 4
PANAMA CITY BEAC           57 66   80/  2/  3 1021.5F
TOWER C                    65     130/  6/  7 1021.0F
28.5N   84.5W              68 74   30/  2/  2 1020.5R   1/ 3

$$
FLZ011-016>038-118-127-128-134-139-239-020800-
NORTH FLORIDA

CITY           SKY/WX    TMP DP  RH WIND       PRES   REMARKS
MARIANNA       CLEAR     42  39  89 CALM      30.15F
TALLAHASSEE    CLEAR     39  36  89 CALM      30.15F
LIVE OAK       CLEAR     41  41 100 CALM      30.14F FOG
CROSS CITY     CLEAR     42  41  95 CALM      30.16F
LAKE CITY      FAIR      46  45  93 CALM      30.14F
GAINESVILLE    CLEAR     51  47  86 CALM      30.17F
WILLISTON      FAIR      49  47  95 CALM      30.16F
PALATKA        MOCLDY    46  46 100 CALM      30.15F
MAYPORT NAS    CLEAR     52  52 100 SW5       30.13F
JACKSONVILLE   PTCLDY    48  48 100 CALM      30.13F
JAX NAS        PTCLDY    57  49  74 SW3       30.14F
JAX CECIL      CLEAR     48  48 100 CALM      30.14F
FERNANDINA BEA FAIR      50  49  95 CALM      30.13F FOG
ST AUGUSTINE   CLEAR     55  52  89 CALM      30.15F
PALM COAST       N/A     54  54  98 CALM      30.17S

STATION/POSITION SKY/WX   TEMP    WIND        PRES    WAVE   SWELL
                          AIR SEA DIR/SP/G            HT/PER HT/PER
                          (F)     (DEG/KT/KT) (MB)    (FT/S) (FT/S)
SHELL POINT      NOT AVBL
KEATON BEACH               49      80/  2/  2 1021.3F
CEDAR KEY                  57      10/  3/  4 1021.7F
FERNANDINA                 56 60   90/  1/  2 1020.6F
30.7N   81.3W              59 62                N/A     2/13   2/13
MAYPORT                    58 62  210/  3/  4 1020.8F
31.4N   80.9W              61 63  240/  8/  8 1019.3F   1/12   2/12
ST AUGUSTINE               58 64  260/  4/  5 1020.9F

$$
FLZ040-043>046-052-053-057-058-063-144-020800-
INTERIOR CENTRAL FLORIDA

CITY           SKY/WX    TMP DP  RH WIND       PRES   REMARKS
OCALA          PTCLDY    51  49  92 CALM      30.17F
LEESBURG       PTCLDY    59  55  87 N5        30.17S
SANFORD        MOCLDY    62  58  86 NW7       30.15S
ORLANDO EXEC   CLOUDY    65  57  75 NW7       30.15R
ORLANDO INTL   PTCLDY    63  58  83 NW5       30.15R
KISSIMMEE      CLOUDY    61  56  83 N3        30.16S
WINTER HAVEN   CLEAR     61  56  83 N6        30.16R
LAKELAND       CLEAR     59  52  77 CALM      30.14S
BARTOW         FAIR      61  55  82 N6        30.15S
SEBRING        FAIR      57  55  95 NW3       30.13S
OKEECHOBEE     CLEAR     55  55 100 CALM      30.11F

$$
FLZ041-047-054-059-064-141-147-020800-
EAST CENTRAL FLORIDA

CITY           SKY/WX    TMP DP  RH WIND       PRES   REMARKS
DAYTONA BEACH  PTCLDY    59  57  93 NW7       30.16S
DELAND         CLOUDY    58  56  91 NW6       30.17S
JFK SPACE CTR  CLEAR     59  58  96 NW7       30.12R
CAPE CANAVERAL CLEAR     58  57  95 NW7       30.11R
PATRICK AFB    CLEAR     62  61  99 W6        30.10S
MELBOURNE      CLEAR     56  56 100 W7        30.11F
VERO BEACH     CLEAR     58  56  93 W3        30.11F
FT PIERCE      CLEAR     55  54  96 CALM      30.11F
STUART           N/A     61  57  88 W3        30.12F

STATION/POSITION SKY/WX   TEMP    WIND        PRES    WAVE   SWELL
                          AIR SEA DIR/SP/G            HT/PER HT/PER
                          (F)     (DEG/KT/KT) (MB)    (FT/S) (FT/S)
28.5N   80.2W              71 78  270/  6/  8 1018.8F   2/12   2/12
28.9N   78.5W              72 75  110/  4/  6 1019.3F   5/ 6   5/ 6
TRIDENT PIER               63 69  300/  5/  6 1020.0R
28.4N   80.5W                 69                N/A     1/12   2/12
27.6N   80.2W                 77                N/A     2/12   2/12

$$
FLZ050-056-061-142-242-148-248-149-249-151-251-155-255-
160-260-020800-
WEST CENTRAL FLORIDA

CITY           SKY/WX    TMP DP  RH WIND       PRES   REMARKS
CRYSTAL RIVER  FAIR      54  50  87 CALM      30.17F
INVERNESS      FAIR      54  54 100 CALM      30.18R
BROOKSVILLE    PTCLDY    56  51  84 N7        30.17S
CLEARWATER AIR FAIR      57  54  88 CALM      30.16S
ST PETE CLEARW PTCLDY    60  59  96 N6        30.15S
TAMPA INTL     CLEAR     61  55  81 N5        30.16R
TAMPA EXEC       N/A     55  55 100 CALM      30.16R FOG
PLANT CITY     CLEAR     57  57 100 CALM      30.17R
MACDILL AFB    CLEAR     59  54  85 NW7       30.12R
PETER O KNIGHT CLOUDY    61  57  88 NW3       30.16R
ST PETERSBURG  CLEAR     64  24  21 N8        30.13S
SARASOTA       CLEAR     59  58  96 N5        30.12R
VENICE         FAIR      61  59  94 NE3       30.13S

STATION/POSITION SKY/WX   TEMP    WIND        PRES    WAVE   SWELL
                          AIR SEA DIR/SP/G            HT/PER HT/PER
                          (F)     (DEG/KT/KT) (MB)    (FT/S) (FT/S)
27.3N   84.3W                 75                N/A     1/ 5
CLEARWATER BEACH           62 66  360/  4/  5 1021.3R
MIDDLE TAMPA BAY           65      60/  7/  7 1020.5R
VENICE                     64 68   80/  8/  8 1019.7F

$$
FLZ066-069-070-075>078-162-262-165-265-020800-
SOUTHWEST FLORIDA AND KEYS

CITY           SKY/WX    TMP DP  RH WIND       PRES   REMARKS
PUNTA GORDA    CLEAR     57  57 100 CALM      30.13F
FT MYERS       CLEAR     62  59  90 CALM      30.12S
SOUTHWEST INTL CLEAR     62  58  86 CALM      30.12F
NAPLES         CLEAR     63  60  90 CALM      30.11F
MARCO ISLAND   CLEAR     62  60  93 NE3       30.13F
IMMOKALEE      FAIR      57  55  94 CALM      30.11F
MARATHON       CLEAR     66  65  96 NE5       30.10F
KEY WEST NAS   CLEAR     72  63  73 E5        30.11F
KEY WEST INTL  CLEAR     68  64  87 NE5       30.12F

STATION/POSITION SKY/WX   TEMP    WIND        PRES    WAVE   SWELL
                          AIR SEA DIR/SP/G            HT/PER HT/PER
                          (F)     (DEG/KT/KT) (MB)    (FT/S) (FT/S)
NAPLES                     70 70              1020.6F
DRY TORTUGAS     NOT AVBL
SAND KEY                   74      60/  7/  9 1020.0F
SOMBRERO KEY               73      30/  7/  8 1020.0F
LONG KEY                   72                 1019.5F

$$
FLZ067-068-071>074-168-172>174-020800-
SOUTHEAST FLORIDA

CITY           SKY/WX    TMP DP  RH WIND       PRES   REMARKS
W PALM BEACH   PTCLDY    63  60  90 CALM      30.11F
FT LAUDER-EXEC PTCLDY    65  61  87 CALM      30.12S
FT LAUDERDALE  CLEAR     66  63  90 W3        30.11F
POMPANO BEACH    N/A    N/A N/A N/A MISG      30.11F
PEMBROKE PINES PTCLDY    63  60  90 NW5       30.13F
OPA LOCKA      PTCLDY    66  60  81 CALM      30.12F
MIAMI          PTCLDY    68  61  78 W3        30.12F
WEST KENDALL   CLEAR     61  57  87 NW3       30.12F
HOMESTEAD      CLEAR     60  58  93 CALM      30.10F

STATION/POSITION SKY/WX   TEMP    WIND        PRES    WAVE   SWELL
                          AIR SEA DIR/SP/G            HT/PER HT/PER
                          (F)     (DEG/KT/KT) (MB)    (FT/S) (FT/S)
VIRGINIA KEY               70 77  310/  3/  4 1020.6S
LAKE WORTH                 69 78  260/  4/  5 1019.2F
FOWEY ROCKS                72 76  310/  8/  8 1020.3F
SETTLEMENT POINT           71     130/  4/  5 1019.2F

$$




USA.gov is the U.S. government's official web portal to all federal, state and local government web resources and services.